Consulta los datos en tiempo real de la estación meteorológica de Calldetenes
| Hora UTC | 05:40 |
|---|---|
| Temperatura | 12.8 ºC |
| Suelo 15 cm | 12.6 ºC |
| Humedad | 88.3 % |
| Presión | 1019.9 hPa |
| Pluja | 0.0 mm |
| Velocidad viento | 0.1 km/h |
| Dirección viento | SSE |
| Radiación solar | 12.3 W/m² |
| Temperatura (ºC) | Humedad (%) | Presión (hPa) | Velocidad viento (km/h) | Precipitación (mm) | Radiación solar (W/m²) | ||||||||||||||
|---|---|---|---|---|---|---|---|---|---|---|---|---|---|---|---|---|---|---|---|
| Hora UTC | Aire | Suelo 15 cm | Humedad | Presión | Vel. | Dir. | Vel. Max | Dir. | Intent. máx 5 min. | Rad. Sol. | |||||||||
| 00:05 | 15.6 | 15.7 | 71.8 | 1019.3 | 4.6 | ESE | 4.6 | ESE | 0.0 | 0.1 | |||||||||
| 00:10 | 15.7 | 15.7 | 71.2 | 1019.3 | 1.4 | SSE | 2.1 | SE | 0.0 | 0.1 | |||||||||
| 00:15 | 15.7 | 15.7 | 71.9 | 1019.3 | 0.5 | S | 2.1 | S | 0.0 | 0.1 | |||||||||
| 00:20 | 15.7 | 15.6 | 72.9 | 1019.3 | 2.9 | S | 4.2 | S | 0.0 | 0.1 | |||||||||
| 00:25 | 15.8 | 15.6 | 72.2 | 1019.3 | 0.9 | SSE | 3.5 | SSE | 0.0 | 0.1 | |||||||||
| 00:30 | 15.6 | 15.5 | 72.7 | 1019.3 | 2.2 | SSE | 3.9 | SE | 0.0 | 0.1 | |||||||||
| 00:35 | 15.8 | 15.6 | 72.5 | 1019.3 | 4.0 | SE | 5.3 | ESE | 0.0 | 0.1 | |||||||||
| 00:40 | 15.9 | 15.6 | 71.1 | 1019.3 | 2.3 | SE | 3.5 | ESE | 0.0 | 0.1 | |||||||||
| 00:45 | 15.8 | 15.6 | 71.2 | 1019.3 | 1.4 | SE | 3.9 | ESE | 0.0 | 0.1 | |||||||||
| 00:50 | 15.4 | 15.5 | 72.7 | 1019.3 | 0.6 | SSE | 2.8 | SE | 0.0 | 0.1 | |||||||||
| 00:55 | 15.2 | 15.3 | 74.2 | 1019.3 | 3.7 | ESE | 6.7 | ESE | 0.0 | 0.1 | |||||||||
| 01:00 | 15.1 | 15.1 | 74.7 | 1019.3 | 5.3 | ESE | 7.4 | ESE | 0.0 | 0.1 | |||||||||
| 01:05 | 15.6 | 15.1 | 74.1 | 1019.3 | 6.5 | ESE | 7.4 | ESE | 0.0 | 0.1 | |||||||||
| 01:10 | 16.2 | 15.4 | 71.1 | 1019.3 | 4.1 | SE | 7.1 | ESE | 0.0 | 0.1 | |||||||||
| 01:15 | 15.7 | 15.6 | 72.5 | 1019.4 | 4.8 | SE | 7.8 | ESE | 0.0 | 0.1 | |||||||||
| 01:20 | 15.4 | 15.4 | 74.2 | 1019.4 | 6.9 | ESE | 8.5 | ESE | 0.0 | 0.1 | |||||||||
| 01:25 | 15.1 | 15.2 | 75.1 | 1019.4 | 7.0 | ESE | 8.8 | ESE | 0.0 | 0.1 | |||||||||
| 01:30 | 14.9 | 15.0 | 76.2 | 1019.4 | 5.4 | ESE | 7.8 | SE | 0.0 | 0.1 | |||||||||
| 01:35 | 14.8 | 14.9 | 77.1 | 1019.4 | 4.4 | ESE | 6.4 | ESE | 0.0 | 0.1 | |||||||||
| 01:40 | 14.9 | 14.8 | 77.0 | 1019.4 | 4.0 | ESE | 6.4 | ESE | 0.0 | 0.1 | |||||||||
| 01:45 | 15.3 | 15.0 | 76.2 | 1019.4 | 2.5 | SE | 5.6 | SE | 0.0 | 0.1 | |||||||||
| 01:50 | 15.5 | 15.2 | 75.1 | 1019.4 | 2.7 | SE | 4.6 | ESE | 0.0 | 0.1 | |||||||||
| 01:55 | 15.3 | 15.2 | 75.6 | 1019.4 | 1.5 | ESE | 6.0 | ESE | 0.0 | 0.1 | |||||||||
| 02:00 | 15.2 | 15.1 | 76.8 | 1019.4 | 3.0 | SE | 6.0 | ESE | 0.0 | 0.1 | |||||||||
| 02:05 | 15.2 | 15.0 | 76.7 | 1019.4 | 0.8 | SSW | 2.8 | SE | 0.0 | 0.1 | |||||||||
| 02:10 | 15.2 | 15.0 | 77.3 | 1019.4 | 2.8 | NW | 5.3 | NW | 0.0 | 0.1 | |||||||||
| 02:15 | 15.3 | 15.1 | 77.2 | 1019.4 | 3.4 | WNW | 5.3 | NW | 0.0 | 0.1 | |||||||||
| 02:20 | 15.8 | 15.2 | 75.0 | 1019.4 | 3.4 | SSW | 6.7 | SSW | 0.0 | 0.1 | |||||||||
| 02:25 | 16.0 | 15.5 | 72.2 | 1019.4 | 1.1 | S | 4.2 | SSW | 0.0 | 0.1 | |||||||||
| 02:30 | 15.7 | 15.6 | 73.0 | 1019.4 | 1.3 | S | 3.2 | SSE | 0.0 | 0.1 | |||||||||
| 02:35 | 15.5 | 15.4 | 73.3 | 1019.4 | 1.6 | SSE | 3.9 | S | 0.0 | 0.1 | |||||||||
| 02:40 | 15.1 | 15.1 | 75.2 | 1019.4 | 2.1 | SE | 7.1 | ESE | 0.0 | 0.1 | |||||||||
| 02:45 | 14.6 | 14.7 | 78.1 | 1019.5 | 5.2 | ESE | 6.4 | ESE | 0.0 | 0.1 | |||||||||
| 02:50 | 14.5 | 14.5 | 79.1 | 1019.5 | 5.3 | ESE | 6.4 | ESE | 0.0 | 0.1 | |||||||||
| 02:55 | 14.4 | 14.3 | 79.5 | 1019.5 | 3.9 | ESE | 5.6 | ESE | 0.0 | 0.1 | |||||||||
| 03:00 | 14.0 | 14.1 | 80.7 | 1019.5 | 3.9 | ESE | 5.6 | ESE | 0.0 | 0.1 | |||||||||
| 03:05 | 14.1 | 13.9 | 81.6 | 1019.5 | 4.1 | SE | 5.6 | SE | 0.0 | 0.1 | |||||||||
| 03:10 | 13.9 | 13.8 | 81.0 | 1019.5 | 2.1 | ESE | 3.5 | ESE | 0.0 | 0.1 | |||||||||
| 03:15 | 13.7 | 13.7 | 82.6 | 1019.5 | 1.0 | ESE | 3.5 | ESE | 0.0 | 0.1 | |||||||||
| 03:20 | 13.7 | 13.7 | 82.8 | 1019.5 | 2.3 | ESE | 4.2 | ESE | 0.0 | 0.1 | |||||||||
| 03:25 | 13.6 | 13.6 | 82.3 | 1019.5 | 0.7 | ESE | 2.8 | ESE | 0.0 | 0.1 | |||||||||
| 03:30 | 13.6 | 13.5 | 83.6 | 1019.5 | 0.0 | NNE | 0.0 | ESE | 0.0 | 0.1 | |||||||||
| 03:35 | 13.7 | 13.5 | 83.2 | 1019.6 | 1.0 | SSE | 2.8 | SSE | 0.0 | 0.1 | |||||||||
| 03:40 | 13.6 | 13.5 | 83.0 | 1019.6 | 1.8 | S | 3.9 | SE | 0.0 | 0.1 | |||||||||
| 03:45 | 13.5 | 13.5 | 83.4 | 1019.6 | 2.7 | ESE | 5.3 | ESE | 0.0 | 0.1 | |||||||||
| 03:50 | 13.6 | 13.5 | 84.2 | 1019.6 | 3.5 | SE | 6.4 | SE | 0.0 | 0.1 | |||||||||
| 03:55 | 13.6 | 13.5 | 83.7 | 1019.6 | 0.5 | SE | 3.5 | SE | 0.0 | 0.1 | |||||||||
| 04:00 | 13.5 | 13.4 | 84.5 | 1019.6 | 0.0 | ESE | 1.1 | ESE | 0.0 | 0.1 | |||||||||
| 04:05 | 13.5 | 13.3 | 84.9 | 1019.6 | 0.0 | NNE | 0.0 | ESE | 0.0 | 0.1 | |||||||||
| 04:10 | 13.5 | 13.4 | 84.7 | 1019.6 | 1.7 | SSW | 3.5 | S | 0.0 | 0.1 | |||||||||
| 04:15 | 13.5 | 13.4 | 84.5 | 1019.6 | 1.0 | SSE | 3.2 | SSW | 0.0 | 0.1 | |||||||||
| 04:20 | 13.4 | 13.3 | 84.1 | 1019.6 | 0.0 | NNE | 0.0 | ESE | 0.0 | 0.1 | |||||||||
| 04:25 | 13.2 | 13.2 | 84.6 | 1019.6 | 2.1 | E | 3.2 | E | 0.0 | 0.1 | |||||||||
| 04:30 | 13.1 | 13.1 | 85.0 | 1019.6 | 1.4 | ESE | 2.5 | ESE | 0.0 | 0.1 | |||||||||
| 04:35 | 13.0 | 13.0 | 85.7 | 1019.6 | 2.5 | E | 3.9 | E | 0.0 | 0.1 | |||||||||
| 04:40 | 13.0 | 13.0 | 86.4 | 1019.6 | 3.6 | ESE | 4.9 | ESE | 0.0 | 0.0 | |||||||||
| 04:45 | 12.8 | 13.0 | 84.5 | 1019.6 | 3.5 | ESE | 4.9 | ESE | 0.0 | 0.1 | |||||||||
| 04:50 | 12.6 | 12.8 | 86.0 | 1019.6 | 2.9 | ESE | 4.2 | E | 0.0 | 0.1 | |||||||||
| 04:55 | 12.5 | 12.6 | 87.5 | 1019.6 | 2.9 | SE | 4.2 | SE | 0.0 | 0.2 | |||||||||
| 05:00 | 12.5 | 12.6 | 88.1 | 1019.6 | 1.0 | SSE | 3.5 | SSE | 0.0 | 0.4 | |||||||||
| 05:05 | 12.7 | 12.6 | 88.8 | 1019.7 | 0.6 | SE | 2.8 | SE | 0.0 | 0.8 | |||||||||
| 05:10 | 12.8 | 12.6 | 88.6 | 1019.7 | 0.0 | NNE | 0.0 | SSE | 0.0 | 1.5 | |||||||||
| 05:15 | 12.8 | 12.7 | 88.0 | 1019.7 | 0.9 | SSW | 2.5 | SSE | 0.0 | 2.6 | |||||||||
| 05:20 | 12.9 | 12.7 | 88.3 | 1019.7 | 2.1 | S | 4.2 | SSE | 0.0 | 4.3 | |||||||||
| 05:25 | 12.9 | 12.7 | 86.9 | 1019.8 | 1.4 | SSE | 3.5 | SSE | 0.0 | 6.1 | |||||||||
| 05:30 | 12.8 | 12.7 | 86.7 | 1019.8 | 0.2 | SSE | 1.8 | SSE | 0.0 | 8.1 | |||||||||
| 05:35 | 12.8 | 12.7 | 87.0 | 1019.9 | 0.0 | NNE | 0.0 | SSE | 0.0 | 10.1 | |||||||||
| 05:40 | 12.8 | 12.6 | 88.3 | 1019.9 | 0.1 | SSE | 1.4 | SSE | 0.0 | 12.3 | |||||||||
| Máxima | 16.2 | 15.7 | 88.8 | 1019.9 | 7.0 | ESE | 8.8 | ESE | 0.0 | 12.3 | |||||||||
| Mínima | 12.5 | 12.6 | 71.1 | 1019.3 | |||||||||||||||
| Total | 0.0 | ||||||||||||||||||